User: anonymous   Login
Location: Casaglia
(44.0333°N, 11.5167°E)
Time: 22:12:36
(UTC+00:00)
Language:

Envisat - Orbit

View from above orbital plane
View from above orbital plane
View from above satellite
View from above satellite

Ground track
Ground track

The orbit data is extracted from the following two-line orbital elements,

1 27386U 02009A   21260.45339425  .00000036  00000-0  25488-4 0  9993
2 27386  98.1562 249.8413 0001262  85.5112  87.4643 14.38042065 24228
Epoch (UTC): 17 September 2021 10:52:53
Eccentricity: 0.0001262
inclination: 98.1562°
perigee height: 764 km
apogee height: 766 km
right ascension of ascending node: 249.8413°
argument of perigee: 85.5112°
revolutions per day: 14.38042065
mean anomaly at epoch: 87.4643°
orbit number at epoch: 2422

The dashed part of the orbit path shows where the satellite is in the earth's shadow,  

DLR